This is the latest recevied weather packets stored in our database for station/object KE4EST. If no packets are shown the sender has not sent any weather packets the latest 10 day(s).
| Time | Temp. | Humidity | Pressure | Rain* | Wind** | Luminosity | Snow |
|---|---|---|---|---|---|---|---|
| 1777735652 | 15.56° C | 61% | 1013.8 hPa | 0 mm | - | 276 W/m² | - |
| 1777735344 | 15.56° C | 61% | 1014.1 hPa | 0 mm | - | 200 W/m² | - |
| 1777735042 | 15.56° C | 60% | 1013.9 hPa | 0 mm | - | 132 W/m² | - |
| 1777734738 | 15° C | 62% | 1013.7 hPa | 0 mm | - | 95 W/m² | - |
| 1777734436 | 15° C | 62% | 1013.7 hPa | 0 mm | - | 124 W/m² | - |
| 1777734133 | 15° C | 62% | 1013.7 hPa | 0 mm | - | 82 W/m² | - |
| 1777733829 | 15° C | 63% | 1013.7 hPa | 0 mm | - | 207 W/m² | - |
| 1777733526 | 14.44° C | 66% | 1014.1 hPa | 0 mm | - | 116 W/m² | - |
| 1777732919 | 13.89° C | 70% | 1013.8 hPa | 0 mm | - | 47 W/m² | - |
| 1777732615 | 13.89° C | 69% | 1013.8 hPa | 0 mm | - | 60 W/m² | - |
| 1777732313 | 13.89° C | 70% | 1013.8 hPa | 0 mm | - | 70 W/m² | - |
| 1777732009 | 13.33° C | 69% | 1014.1 hPa | 0 mm | - | 80 W/m² | - |
| 1777731706 | 13.33° C | 73% | 1014.1 hPa | 0 mm | - | 101 W/m² | - |
| 1777731403 | 13.89° C | 67% | 1014.1 hPa | 0 mm | - | 139 W/m² | - |
| 1777731101 | 13.33° C | 69% | 1013.8 hPa | 0 mm | - | 186 W/m² | - |
| 1777730800 | 13.33° C | 70% | 1013.8 hPa | 0 mm | - | 137 W/m² | - |
| 1777730496 | 12.78° C | 70% | 1013.8 hPa | 0 mm | - | 152 W/m² | - |
| 1777730192 | 12.22° C | 70% | 1013.7 hPa | 0 mm | - | 71 W/m² | - |
| 1777729889 | 12.22° C | 72% | 1013.7 hPa | 0 mm | - | 51 W/m² | - |
| 1777729586 | 12.22° C | 73% | 1013.8 hPa | 0 mm | - | 98 W/m² | - |
| 1777729282 | 11.67° C | 74% | 1013.7 hPa | 0 mm | - | 54 W/m² | - |
| 1777728979 | 11.67° C | 78% | 1013.8 hPa | 0 mm | - | 67 W/m² | - |
| 1777728675 | 11.11° C | 77% | 1013.8 hPa | 0 mm | - | 73 W/m² | - |
| 1777728373 | 11.11° C | 77% | 1013.7 hPa | 0 mm | - | 79 W/m² | - |
| 1777728070 | 11.67° C | 75% | 1013.5 hPa | 0 mm | - | 66 W/m² | - |
* Rain latest hour (hover to see other rain measurements)
** Current wind speed in m/s (hover to see current wind gust speed)